Tracking 30970 objects as of 3-Jul-2025
HD Live streaming from Space Station
objects crossing your sky now

FENGYUN 1C DEB

Track FENGYUN 1C DEB now!
10-day predictions


NORAD ID: 30417
Int'l Code: 1999-025AEG
Perigee: 806.0 km
Apogee: 896.7 km
Inclination: 98.7 °
Period: 101.8 minutes
Semi major axis: 7222 km
RCS: 0.0259 m2 (small)
Launch date: May 10, 1999
Source: People's Republic of China (PRC)
Launch site: Taiyaun Space Center, China (TSC)

Note: This is SATELLITE DEBRIS
Your satellite tracking list
AEROCUBE 6A
Track 1 satellite(s)




NASA's NSSDC Master Catalog

Two Line Element Set (TLE):
1 30417U 99025AEG 25183.74270140  .00000308  00000-0  18008-3 0  9995
2 30417  98.6793 178.1151 0062821 225.4192 309.4782 14.14436594950847
Source of the keplerian elements: AFSPC